Time,TemperatureF,DewpointF,PressureIn,WindDirection,WindDirectionDegrees,WindSpeedMPH,WindSpeedGustMPH,Humidity,HourlyPrecipIn,Conditions,Clouds,dailyrainin,SoftwareType,DateUTC
2013-03-09 00:02:00,52.0,49.0,29.71,SE,145,3.0,11.0,91,0.00,,,0.00,,2013-03-09 06:02:00,
2013-03-09 00:11:00,52.0,50.0,29.70,SE,133,4.0,9.0,92,0.00,,,0.00,,2013-03-09 06:11:00,
2013-03-09 00:22:00,52.0,50.0,29.70,SE,133,4.0,9.0,92,0.00,,,0.00,,2013-03-09 06:22:00,
2013-03-09 00:32:00,52.0,50.0,29.68,SSE,159,6.0,11.0,93,0.00,,,0.00,,2013-03-09 06:32:00,
2013-03-09 00:42:00,52.0,50.0,29.68,SSE,159,6.0,11.0,93,0.00,,,0.00,,2013-03-09 06:42:00,
2013-03-09 00:51:00,51.0,49.0,29.67,SSE,161,5.0,12.0,94,0.00,,,0.00,,2013-03-09 06:51:00,
2013-03-09 01:01:00,51.0,49.0,29.67,SSE,157,6.0,15.0,94,0.00,,,0.00,,2013-03-09 07:01:00,
2013-03-09 01:11:00,51.0,49.0,29.67,SSE,157,6.0,15.0,94,0.00,,,0.00,,2013-03-09 07:11:00,
2013-03-09 01:21:00,50.0,49.0,29.66,SE,139,5.0,13.0,95,0.00,,,0.00,,2013-03-09 07:21:00,
2013-03-09 01:32:00,49.0,48.0,29.66,SE,144,7.0,11.0,95,0.00,,,0.00,,2013-03-09 07:32:00,
2013-03-09 01:42:00,49.0,48.0,29.66,SE,144,7.0,11.0,95,0.00,,,0.00,,2013-03-09 07:42:00,
2013-03-09 01:52:00,49.0,48.0,29.65,SSE,148,7.0,13.0,96,0.00,,,0.00,,2013-03-09 07:52:00,
2013-03-09 02:01:00,48.0,47.0,29.66,ESE,119,9.0,14.0,96,0.00,,,0.00,,2013-03-09 08:01:00,
2013-03-09 02:11:00,48.0,47.0,29.66,ESE,119,9.0,14.0,96,0.00,,,0.00,,2013-03-09 08:11:00,
2013-03-09 02:22:00,48.0,47.0,29.65,SE,142,7.0,11.0,96,0.00,,,0.00,,2013-03-09 08:22:00,
2013-03-09 02:32:00,48.0,47.0,29.65,SE,135,5.0,12.0,96,0.00,,,0.00,,2013-03-09 08:32:00,
2013-03-09 02:41:00,48.0,47.0,29.65,SE,135,5.0,12.0,96,0.00,,,0.00,,2013-03-09 08:41:00,
2013-03-09 02:52:00,48.0,47.0,29.64,SSE,147,7.0,11.0,97,0.00,,,0.00,,2013-03-09 08:52:00,
2013-03-09 03:01:00,48.0,47.0,29.63,SSE,149,5.0,8.0,97,0.00,,,0.00,,2013-03-09 09:01:00,
2013-03-09 03:12:00,48.0,47.0,29.63,SSE,149,5.0,8.0,97,0.00,,,0.00,,2013-03-09 09:12:00,
2013-03-09 03:21:00,48.0,47.0,29.61,SE,137,4.0,6.0,97,0.00,,,0.00,,2013-03-09 09:21:00,
2013-03-09 03:32:00,48.0,47.0,29.60,SE,136,0.0,4.0,97,0.00,,,0.00,,2013-03-09 09:32:00,
2013-03-09 03:42:00,48.0,47.0,29.60,SE,136,0.0,4.0,97,0.00,,,0.00,,2013-03-09 09:42:00,
2013-03-09 03:52:00,48.0,47.0,29.59,SE,134,0.0,4.0,97,0.00,,,0.00,,2013-03-09 09:52:00,
2013-03-09 04:01:00,48.0,47.0,29.58,SE,128,3.0,5.0,97,0.00,,,0.00,,2013-03-09 10:01:00,
2013-03-09 04:11:00,48.0,47.0,29.58,SE,128,3.0,5.0,97,0.00,,,0.00,,2013-03-09 10:11:00,
2013-03-09 04:21:00,48.0,47.0,29.58,SE,144,3.0,7.0,97,0.00,,,0.00,,2013-03-09 10:21:00,
2013-03-09 04:31:00,48.0,47.0,29.57,SE,128,2.0,5.0,98,0.00,,,0.00,,2013-03-09 10:31:00,
2013-03-09 04:41:00,48.0,47.0,29.57,SE,128,2.0,5.0,98,0.00,,,0.00,,2013-03-09 10:41:00,
2013-03-09 04:52:00,49.0,48.0,29.57,SSE,161,5.0,9.0,98,0.00,,,0.00,,2013-03-09 10:52:00,
2013-03-09 05:01:00,49.0,48.0,29.55,SSE,159,4.0,10.0,98,0.00,,,0.00,,2013-03-09 11:01:00,
2013-03-09 05:11:00,49.0,48.0,29.55,SSE,159,4.0,10.0,98,0.00,,,0.00,,2013-03-09 11:11:00,
2013-03-09 05:21:00,49.0,48.0,29.54,SE,125,3.0,7.0,98,0.00,,,0.00,,2013-03-09 11:21:00,
2013-03-09 05:32:00,50.0,49.0,29.54,SE,134,2.0,5.0,98,0.00,,,0.00,,2013-03-09 11:32:00,
2013-03-09 05:42:00,50.0,49.0,29.54,SE,134,2.0,5.0,98,0.00,,,0.00,,2013-03-09 11:42:00,
2013-03-09 05:52:00,50.0,49.0,29.54,SE,142,3.0,6.0,98,0.00,,,0.00,,2013-03-09 11:52:00,
2013-03-09 06:01:00,51.0,50.0,29.54,SE,131,3.0,8.0,98,0.00,,,0.00,,2013-03-09 12:01:00,
2013-03-09 06:11:00,51.0,50.0,29.54,SE,131,3.0,8.0,98,0.00,,,0.00,,2013-03-09 12:11:00,
2013-03-09 06:21:00,51.0,50.0,29.52,SE,140,0.0,4.0,98,0.00,,,0.00,,2013-03-09 12:21:00,
2013-03-09 06:32:00,51.0,50.0,29.51,SE,139,2.0,7.0,98,0.00,,,0.00,,2013-03-09 12:32:00,
2013-03-09 06:42:00,51.0,50.0,29.51,SE,139,2.0,7.0,98,0.00,,,0.00,,2013-03-09 12:42:00,
2013-03-09 06:52:00,51.0,50.0,29.51,ESE,123,1.0,4.0,98,0.00,,,0.00,,2013-03-09 12:52:00,
2013-03-09 07:02:00,51.0,50.0,29.51,SE,132,5.0,9.0,98,0.00,,,0.00,,2013-03-09 13:02:00,
2013-03-09 07:11:00,51.0,50.0,29.51,SE,132,5.0,9.0,98,0.00,,,0.00,,2013-03-09 13:11:00,
2013-03-09 07:21:00,51.0,50.0,29.51,SE,128,1.0,7.0,98,0.00,,,0.00,,2013-03-09 13:21:00,
2013-03-09 07:32:00,51.0,50.0,29.50,SE,134,4.0,8.0,98,0.00,,,0.00,,2013-03-09 13:32:00,
2013-03-09 07:42:00,51.0,50.0,29.50,SE,134,4.0,8.0,98,0.00,,,0.00,,2013-03-09 13:42:00,
2013-03-09 07:52:00,51.0,50.0,29.50,SSE,150,4.0,10.0,98,0.00,,,0.00,,2013-03-09 13:52:00,
2013-03-09 08:01:00,51.0,50.0,29.50,SE,134,3.0,7.0,98,0.00,,,0.00,,2013-03-09 14:01:00,
2013-03-09 08:11:00,51.0,50.0,29.50,SE,134,3.0,7.0,98,0.00,,,0.00,,2013-03-09 14:11:00,
2013-03-09 08:21:00,51.0,50.0,29.50,SE,130,2.0,5.0,98,0.00,,,0.00,,2013-03-09 14:21:00,
2013-03-09 08:32:00,51.0,50.0,29.50,SE,146,2.0,5.0,98,0.00,,,0.00,,2013-03-09 14:32:00,
2013-03-09 08:42:00,51.0,50.0,29.50,SE,146,2.0,5.0,98,0.00,,,0.00,,2013-03-09 14:42:00,
2013-03-09 08:52:00,51.0,50.0,29.50,SE,146,2.0,5.0,98,0.00,,,0.00,,2013-03-09 14:52:00,
2013-03-09 09:02:00,52.0,51.0,29.49,SE,144,3.0,7.0,98,0.00,,,0.00,,2013-03-09 15:02:00,
2013-03-09 09:11:00,52.0,51.0,29.49,SE,144,3.0,7.0,98,0.00,,,0.00,,2013-03-09 15:11:00,
2013-03-09 09:22:00,52.0,51.0,29.48,SE,146,1.0,8.0,98,0.00,,,0.00,,2013-03-09 15:22:00,
2013-03-09 09:32:00,53.0,52.0,29.48,SSE,147,2.0,6.0,97,0.00,,,0.00,,2013-03-09 15:32:00,
2013-03-09 09:42:00,53.0,52.0,29.48,SSE,147,2.0,6.0,97,0.00,,,0.00,,2013-03-09 15:42:00,
2013-03-09 09:52:00,53.0,52.0,29.48,SSE,147,2.0,6.0,97,0.00,,,0.00,,2013-03-09 15:52:00,
2013-03-09 10:01:00,55.0,52.0,29.47,South,176,5.0,12.0,91,0.00,,,0.00,,2013-03-09 16:01:00,
2013-03-09 10:11:00,55.0,52.0,29.47,South,176,5.0,12.0,91,0.00,,,0.00,,2013-03-09 16:11:00,
2013-03-09 10:21:00,49.0,46.0,29.48,North,355,5.0,13.0,89,0.00,,,0.00,,2013-03-09 16:21:00,
2013-03-09 10:32:00,41.0,39.0,29.49,North,360,9.0,16.0,91,0.00,,,0.00,,2013-03-09 16:32:00,
2013-03-09 10:42:00,41.0,39.0,29.49,North,360,9.0,16.0,91,0.00,,,0.00,,2013-03-09 16:42:00,
2013-03-09 10:51:00,40.0,38.0,29.50,North,355,8.0,19.0,92,0.00,,,0.00,,2013-03-09 16:51:00,
2013-03-09 11:01:00,39.0,37.0,29.50,NE,44,10.0,17.0,92,0.00,,,0.00,,2013-03-09 17:01:00,
2013-03-09 11:11:00,39.0,37.0,29.50,NE,44,10.0,17.0,92,0.00,,,0.00,,2013-03-09 17:11:00,
2013-03-09 11:22:00,39.0,37.0,29.51,NNE,21,11.0,18.0,92,0.00,,,0.00,,2013-03-09 17:22:00,
2013-03-09 11:32:00,39.0,37.0,29.51,NE,37,13.0,20.0,91,0.00,,,0.00,,2013-03-09 17:32:00,
2013-03-09 11:42:00,39.0,37.0,29.51,NE,37,13.0,20.0,91,0.00,,,0.00,,2013-03-09 17:42:00,
2013-03-09 11:52:00,38.0,36.0,29.52,NE,38,10.0,22.0,91,0.00,,,0.00,,2013-03-09 17:52:00,
2013-03-09 12:01:00,38.0,36.0,29.52,ENE,63,10.0,21.0,91,0.00,,,0.00,,2013-03-09 18:01:00,
2013-03-09 12:11:00,38.0,36.0,29.52,ENE,63,10.0,21.0,91,0.00,,,0.00,,2013-03-09 18:11:00,
2013-03-09 12:21:00,38.0,35.0,29.52,NE,34,11.0,22.0,90,0.00,,,0.00,,2013-03-09 18:21:00,
2013-03-09 12:32:00,37.0,34.0,29.53,NE,35,10.0,28.0,89,0.00,,,0.00,,2013-03-09 18:32:00,
2013-03-09 12:42:00,37.0,34.0,29.53,NE,35,10.0,28.0,89,0.00,,,0.00,,2013-03-09 18:42:00,
2013-03-09 12:52:00,37.0,34.0,29.53,NNE,13,13.0,27.0,89,0.00,,,0.00,,2013-03-09 18:52:00,
2013-03-09 13:01:00,37.0,34.0,29.53,NE,53,8.0,27.0,89,0.00,,,0.00,,2013-03-09 19:01:00,
2013-03-09 13:11:00,37.0,34.0,29.53,NE,53,8.0,27.0,89,0.00,,,0.00,,2013-03-09 19:11:00,
2013-03-09 13:22:00,37.0,34.0,29.54,North,355,12.0,21.0,89,0.00,,,0.00,,2013-03-09 19:22:00,
2013-03-09 13:32:00,36.0,33.0,29.54,North,5,13.0,23.0,88,0.00,,,0.00,,2013-03-09 19:32:00,
2013-03-09 13:42:00,36.0,33.0,29.54,North,5,13.0,23.0,88,0.00,,,0.00,,2013-03-09 19:42:00,
2013-03-09 13:51:00,35.0,32.0,29.56,NNE,18,10.0,21.0,88,0.00,,,0.00,,2013-03-09 19:51:00,
2013-03-09 14:01:00,35.0,32.0,29.56,NE,42,8.0,23.0,88,0.00,,,0.00,,2013-03-09 20:01:00,
2013-03-09 14:11:00,35.0,32.0,29.56,NE,42,8.0,23.0,88,0.00,,,0.00,,2013-03-09 20:11:00,
2013-03-09 14:21:00,34.0,31.0,29.56,NE,47,7.0,20.0,87,0.00,,,0.00,,2013-03-09 20:21:00,
2013-03-09 14:32:00,34.0,31.0,29.56,NNE,19,12.0,21.0,87,0.00,,,0.00,,2013-03-09 20:32:00,
2013-03-09 14:42:00,34.0,31.0,29.56,NNE,19,12.0,21.0,87,0.00,,,0.00,,2013-03-09 20:42:00,
2013-03-09 14:52:00,33.0,30.0,29.57,North,360,12.0,22.0,87,0.00,,,0.00,,2013-03-09 20:52:00,
2013-03-09 15:02:00,33.0,29.0,29.59,NNE,24,13.0,23.0,86,0.00,,,0.00,,2013-03-09 21:02:00,
2013-03-09 15:12:00,33.0,29.0,29.59,NNE,24,13.0,23.0,86,0.00,,,0.00,,2013-03-09 21:12:00,
2013-03-09 15:22:00,33.0,29.0,29.59,NNE,24,13.0,23.0,86,0.00,,,0.00,,2013-03-09 21:22:00,
2013-03-09 15:32:00,32.0,29.0,29.61,NNE,19,9.0,24.0,87,0.00,,,0.00,,2013-03-09 21:32:00,
2013-03-09 15:42:00,32.0,29.0,29.61,NNE,19,9.0,24.0,87,0.00,,,0.00,,2013-03-09 21:42:00,
2013-03-09 15:52:00,32.0,29.0,29.62,NNE,22,11.0,24.0,87,0.00,,,0.00,,2013-03-09 21:52:00,
2013-03-09 16:01:00,32.0,29.0,29.62,NNE,20,11.0,22.0,87,0.00,,,0.00,,2013-03-09 22:01:00,
2013-03-09 16:11:00,32.0,29.0,29.62,NNE,20,11.0,22.0,87,0.00,,,0.00,,2013-03-09 22:11:00,
2013-03-09 16:21:00,32.0,29.0,29.63,NNE,31,9.0,17.0,87,0.00,,,0.00,,2013-03-09 22:21:00,
2013-03-09 16:32:00,32.0,29.0,29.63,NNE,21,10.0,21.0,87,0.00,,,0.00,,2013-03-09 22:32:00,
2013-03-09 16:42:00,32.0,29.0,29.63,NNE,21,10.0,21.0,87,0.00,,,0.00,,2013-03-09 22:42:00,
2013-03-09 16:51:00,31.0,28.0,29.64,NNE,28,9.0,22.0,87,0.00,,,0.00,,2013-03-09 22:51:00,
2013-03-09 17:01:00,31.0,28.0,29.64,NNW,346,7.0,18.0,87,0.00,,,0.00,,2013-03-09 23:01:00,
2013-03-09 17:11:00,31.0,28.0,29.64,NNW,346,7.0,18.0,87,0.00,,,0.00,,2013-03-09 23:11:00,
2013-03-09 17:21:00,31.0,28.0,29.64,NNW,335,12.0,21.0,87,0.00,,,0.00,,2013-03-09 23:21:00,
2013-03-09 17:32:00,31.0,28.0,29.65,North,11,11.0,19.0,87,0.00,,,0.00,,2013-03-09 23:32:00,
2013-03-09 17:41:00,31.0,28.0,29.65,North,11,11.0,19.0,87,0.00,,,0.00,,2013-03-09 23:41:00,
2013-03-09 17:52:00,31.0,27.0,29.66,NNE,22,14.0,23.0,86,0.00,,,0.00,,2013-03-09 23:52:00,
2013-03-09 18:01:00,31.0,27.0,29.67,NNE,15,9.0,24.0,86,0.00,,,0.00,,2013-03-10 00:01:00,
2013-03-09 18:11:00,31.0,27.0,29.67,NNE,15,9.0,24.0,86,0.00,,,0.00,,2013-03-10 00:11:00,
2013-03-09 18:22:00,32.0,28.0,29.69,North,11,10.0,20.0,86,0.00,,,0.00,,2013-03-10 00:22:00,
2013-03-09 18:32:00,32.0,28.0,29.70,NNE,32,12.0,24.0,85,0.00,,,0.00,,2013-03-10 00:32:00,
2013-03-09 18:42:00,32.0,28.0,29.70,NNE,32,12.0,24.0,85,0.00,,,0.00,,2013-03-10 00:42:00,
2013-03-09 18:52:00,32.0,28.0,29.71,NNE,15,10.0,25.0,84,0.00,,,0.00,,2013-03-10 00:52:00,
2013-03-09 19:01:00,32.0,28.0,29.72,NNE,13,14.0,25.0,84,0.00,,,0.00,,2013-03-10 01:01:00,
2013-03-09 19:11:00,32.0,28.0,29.72,NNE,13,14.0,25.0,84,0.00,,,0.00,,2013-03-10 01:11:00,
2013-03-09 19:21:00,32.0,28.0,29.73,NE,37,9.0,21.0,85,0.00,,,0.00,,2013-03-10 01:21:00,
2013-03-09 19:32:00,32.0,28.0,29.74,North,355,13.0,23.0,85,0.00,,,0.00,,2013-03-10 01:32:00,
2013-03-09 19:41:00,32.0,28.0,29.74,North,355,13.0,23.0,85,0.00,,,0.00,,2013-03-10 01:41:00,
2013-03-09 19:52:00,32.0,28.0,29.74,North,360,13.0,21.0,85,0.00,,,0.00,,2013-03-10 01:52:00,
2013-03-09 20:01:00,32.0,28.0,29.74,NNE,32,11.0,27.0,86,0.00,,,0.00,,2013-03-10 02:01:00,
2013-03-09 20:11:00,32.0,28.0,29.74,NNE,32,11.0,27.0,86,0.00,,,0.00,,2013-03-10 02:11:00,
2013-03-09 20:22:00,32.0,28.0,29.76,NE,34,13.0,27.0,85,0.00,,,0.00,,2013-03-10 02:22:00,
2013-03-09 20:32:00,33.0,29.0,29.77,ENE,64,12.0,26.0,84,0.00,,,0.00,,2013-03-10 02:32:00,
2013-03-09 20:42:00,33.0,29.0,29.77,ENE,64,12.0,26.0,84,0.00,,,0.00,,2013-03-10 02:42:00,
2013-03-09 20:52:00,33.0,28.0,29.77,NNE,16,13.0,29.0,82,0.00,,,0.00,,2013-03-10 02:52:00,
2013-03-09 21:02:00,33.0,28.0,29.77,NE,51,16.0,30.0,82,0.00,,,0.00,,2013-03-10 03:02:00,
2013-03-09 21:11:00,33.0,28.0,29.77,NE,51,16.0,30.0,82,0.00,,,0.00,,2013-03-10 03:11:00,
2013-03-09 21:22:00,32.0,27.0,29.77,ENE,61,14.0,28.0,83,0.00,,,0.00,,2013-03-10 03:22:00,
2013-03-09 21:32:00,32.0,28.0,29.79,NE,44,17.0,32.0,84,0.00,,,0.00,,2013-03-10 03:32:00,
2013-03-09 21:42:00,32.0,28.0,29.79,NE,44,17.0,32.0,84,0.00,,,0.00,,2013-03-10 03:42:00,
2013-03-09 21:52:00,32.0,28.0,29.80,NNE,21,13.0,27.0,86,0.00,,,0.00,,2013-03-10 03:52:00,
2013-03-09 22:01:00,32.0,29.0,29.80,NE,42,9.0,25.0,87,0.00,,,0.00,,2013-03-10 04:01:00,
2013-03-09 22:11:00,32.0,29.0,29.80,NE,42,9.0,25.0,87,0.00,,,0.00,,2013-03-10 04:11:00,
2013-03-09 22:21:00,31.0,28.0,29.81,North,360,14.0,25.0,89,0.00,,,0.00,,2013-03-10 04:21:00,
2013-03-09 22:32:00,31.0,28.0,29.83,NNE,13,11.0,28.0,90,0.00,,,0.00,,2013-03-10 04:32:00,
2013-03-09 22:42:00,31.0,28.0,29.83,NNE,13,11.0,28.0,90,0.00,,,0.00,,2013-03-10 04:42:00,
2013-03-09 22:52:00,31.0,29.0,29.84,NNE,14,14.0,24.0,91,0.00,,,0.00,,2013-03-10 04:52:00,
2013-03-09 23:01:00,31.0,29.0,29.85,North,355,10.0,21.0,92,0.00,,,0.00,,2013-03-10 05:01:00,
2013-03-09 23:11:00,31.0,29.0,29.85,North,355,10.0,21.0,92,0.00,,,0.00,,2013-03-10 05:11:00,
2013-03-09 23:22:00,31.0,29.0,29.86,NNE,14,9.0,16.0,93,0.00,,,0.00,,2013-03-10 05:22:00,
2013-03-09 23:31:00,31.0,29.0,29.86,North,5,11.0,20.0,93,0.00,,,0.00,,2013-03-10 05:31:00,
2013-03-09 23:42:00,31.0,29.0,29.86,NNE,26,10.0,20.0,94,0.00,,,0.00,,2013-03-10 05:42:00,
2013-03-09 23:52:00,31.0,29.0,29.86,NNE,26,10.0,20.0,94,0.00,,,0.00,,2013-03-10 05:52:00,